Location: Unspecified
(0.0000°N, 0.0000°E)
Time: 07:30:44
(UTC+00:00)

Envisat - Pass Details

Date: 28 July 2021
Orbit: 764 x 766 km, 98.2° (Epoch: 31 July)

Event Time Altitude Azimuth Distance (km) Brightness Sun altitude
Rises 04:05:22 0° 37° (NE) 3,215 7.1 -28.5°
Reaches altitude 10° 04:08:07 10° 52° (NE) 2,292 6.4 -27.9°
Maximum altitude 04:12:00 22° 102° (ESE) 1,607 5.2 -27.0°
Drops below altitude 10° 04:15:53 10° 153° (SSE) 2,301 5.5 -26.1°
Sets 04:18:38 0° 167° (SSE) 3,229 6.2 -25.4°
